User: anonymous   Login
Location: Unspecified
(0.0000°N, 0.0000°E)
Time: 15:58:57
(UTC+00:00)
Language:

UWE-4 - Orbit

View from above orbital plane
View from above orbital plane
View from above satellite
View from above satellite

Ground track
Ground track

The orbit data is extracted from the following two-line orbital elements,

1 43880U 18111E   21333.55124975  .00001444  00000-0  12994-3 0  9996
2 43880  97.6773 238.3742 0010468 271.1073  88.8950 14.97145502159789
Epoch (UTC): 29 November 2021 13:13:47
Eccentricity: 0.0010468
inclination: 97.6773°
perigee height: 568 km
apogee height: 583 km
right ascension of ascending node: 238.3742°
argument of perigee: 271.1073°
revolutions per day: 14.97145502
mean anomaly at epoch: 88.8950°
orbit number at epoch: 15978

The dashed part of the orbit path shows where the satellite is in the earth's shadow,  

DLR